sat.trackr.live / text

‹ back to catalog

STARLINK-4254

NORAD 52998 · 2022-076N

PAYLOAD ACTIVE UNKNOWN

§ Identity

Operator
Country
US
Launch date
2022-07-07
Launch site
AFETR
Launch vehicle
Mass (kg)
RCS (m²)

Purposes: comms

External: N2YO · Heavens-Above · Gunter

§ Orbital elements

Epoch: 2026-05-25T04:32:35.430144Z

Period
95.44 min
Inclination
53.2140°
Eccentricity
0.0001329
Mean motion
15.08839229 rev/d
Perigee alt
538.8 km
Apogee alt
540.7 km
Semi-major
6,917.9 km
B*
1.3091e-5
RAAN
110.6112°
Arg perigee
61.8394°
Mean anomaly
298.2732°
Rev number
21,439

§ Raw data

STARLINK-42541 52998U 22076N   26145.18929896 -.00000080  00000+0  13091-4 0  99962 52998  53.2140 110.6112 0001329  61.8394 298.2732 15.08839229214397

JSON: /api/v1/satellites/52998 · /tle

For live sub-satellite position, see the globe view (requires WebGL).

§ Visibility from observer

Set your observer location to see the next 7 days of passes ≥ 10°. The values pass through the URL so the page stays shareable.

No JS? Fill the form by hand. The geolocation button needs JavaScript.